Theta_e
326 325 326 327 327 328 330 329 327 326 325 325 323 323 323 323 322 321 320 320 321 321 321 321 320 321 321 321 321 321 321 322 321 321 322 320 319 319 319 319 317 316 316 317 316 316 315 314 315 315 315 315 315 314 313 314 314 314 314 315 315 315 315 314 314 313 311 310 310 309 309 309 309 309 309 310 311 309 309 310 309 309 309 309 309
326 323 322 323 324 327 329 329 328 326 322 321 322 322 322 322 321 321 320 320 321 320 321 321 321 321 321 321 322 322 322 322 322 322 322 322 321 321 320 320 319 318 318 318 316 316 317 316 314 314 314 315 315 314 314 315 314 313 313 314 314 314 315 314 314 313 311 310 311 310 310 311 311 310 310 312 312 311 310 310 310 310 310 309 309
329 325 320 321 326 329 329 328 328 327 323 320 321 320 319 319 321 321 320 320 321 321 321 321 322 322 322 322 322 322 323 323 323 323 323 322 322 322 321 321 321 320 320 320 318 318 318 318 317 316 316 316 316 315 315 315 314 313 313 313 314 314 315 315 315 314 312 312 312 312 313 314 312 311 311 311 311 311 311 310 310 310 310 310 310
330 328 322 321 326 328 328 327 327 328 326 322 320 320 319 318 320 321 320 320 321 321 321 321 322 322 322 322 323 322 323 324 324 324 324 324 324 324 323 323 322 322 322 321 321 320 320 320 319 319 318 318 318 317 317 316 315 314 314 315 315 316 316 317 318 317 315 315 314 313 314 314 313 312 312 311 311 311 311 310 310 310 310 310 311
328 329 327 325 327 328 328 328 327 327 326 324 321 319 319 318 319 321 321 321 321 321 321 321 321 322 322 322 322 322 323 323 324 325 324 324 324 323 323 323 323 323 323 322 322 322 322 322 321 320 320 320 320 319 318 317 316 316 316 316 316 317 317 318 318 318 317 317 316 314 314 314 313 312 313 313 312 312 312 311 311 311 311 312 312
327 328 328 328 328 327 326 327 326 326 325 324 323 321 321 320 320 320 321 321 321 321 322 321 321 322 322 322 321 322 322 323 324 324 324 324 324 324 323 323 323 322 322 322 322 322 322 322 322 322 321 321 321 320 320 318 317 317 316 315 315 316 316 317 318 317 318 318 317 316 316 315 314 314 314 313 313 312 312 312 312 312 312 312 312
326 327 328 328 328 326 325 325 325 325 324 324 323 324 323 322 322 321 320 320 320 321 321 321 321 321 321 321 321 322 322 322 323 323 323 323 324 322 322 322 322 321 321 321 321 321 321 321 322 322 322 322 321 321 320 320 319 318 316 315 316 317 315 316 317 317 318 318 316 316 316 315 315 315 314 314 313 313 313 312 312 313 313 312 311
325 325 325 326 327 326 325 325 324 324 324 325 324 325 325 323 322 321 320 320 320 321 322 321 321 322 321 321 322 321 320 320 321 321 321 322 322 321 322 322 321 321 322 321 321 320 321 321 321 321 321 321 321 321 321 321 320 320 318 317 318 318 316 316 316 317 317 317 316 315 316 316 316 315 315 314 314 313 313 313 313 312 313 312 311
324 323 323 323 324 324 322 323 324 324 325 325 325 324 325 324 323 321 320 320 321 321 322 322 322 321 321 322 322 320 319 320 321 321 321 321 321 321 321 321 321 321 321 321 320 321 321 320 321 322 322 321 320 321 321 321 321 320 319 319 318 318 317 317 317 316 316 315 316 316 316 317 316 315 315 315 314 313 313 313 312 312 312 311 311
324 323 323 323 323 323 322 322 324 325 326 325 325 324 324 324 323 322 321 320 321 321 321 322 322 322 321 322 321 320 320 321 321 322 323 322 321 320 320 320 321 320 319 319 320 322 322 321 322 322 322 321 321 321 321 321 320 319 319 318 318 319 318 317 317 316 315 315 315 316 316 316 315 315 315 314 313 313 312 312 311 311 311 310 310
324 323 324 324 324 324 324 323 324 325 324 324 323 323 324 323 324 324 322 321 321 321 321 322 323 322 321 321 320 318 318 320 321 322 323 322 321 320 320 320 320 318 317 318 320 322 322 322 322 321 320 320 320 319 319 318 318 318 318 318 318 318 318 317 317 316 316 315 315 315 316 315 314 314 314 314 313 312 311 311 310 310 309 309 309
325 324 324 324 324 323 324 324 324 323 323 323 322 323 323 323 324 323 322 323 323 322 322 321 321 321 320 319 319 318 319 320 321 321 321 320 320 319 319 319 319 318 318 319 320 321 321 321 322 321 320 319 317 317 317 316 315 315 316 317 317 317 316 317 317 316 315 314 313 313 314 314 313 314 313 312 312 310 310 309 308 308 308 307 307
325 324 323 323 323 323 323 324 323 323 323 323 323 323 322 322 323 322 322 322 321 320 320 319 318 319 319 319 319 320 320 321 321 320 318 319 319 318 318 318 319 318 318 318 318 319 319 319 320 320 319 316 316 317 318 316 315 314 313 314 316 316 315 315 315 315 314 313 312 311 312 312 312 312 312 310 309 309 308 307 307 306 305 305 305
324 323 322 322 322 322 322 323 322 323 323 323 323 323 322 322 322 321 320 320 320 320 319 319 319 320 319 320 320 320 319 319 317 315 315 316 315 315 315 316 316 316 317 317 317 317 317 316 318 319 318 317 317 318 318 317 316 314 313 313 313 313 313 314 314 313 313 312 310 309 311 312 311 311 310 309 308 307 306 305 304 303 303 302 302
320 320 321 321 321 321 321 321 322 322 322 322 323 322 322 322 321 321 320 320 320 320 320 320 320 320 319 318 317 315 314 314 312 311 309 308 308 310 312 314 315 315 315 316 316 316 316 316 316 317 318 318 317 315 315 316 316 315 314 313 312 310 310 311 311 311 310 310 308 308 310 310 310 309 308 307 306 305 304 303 301 301 301 301 301
314 315 315 316 317 318 318 319 320 321 321 321 321 321 321 322 321 322 322 321 321 320 320 320 320 318 317 316 312 311 309 309 307 306 303 303 306 310 313 313 315 315 315 316 317 317 316 316 317 317 316 316 315 313 312 313 314 314 313 313 312 311 310 309 308 308 308 308 308 308 309 308 307 307 305 305 305 304 302 301 300 300 300 300 300
313 313 313 313 313 314 314 315 316 317 318 319 319 320 320 320 320 321 321 320 320 320 319 319 319 317 316 314 311 307 305 304 303 302 302 306 311 314 314 314 315 314 314 316 315 313 313 314 315 315 314 312 311 311 310 310 311 312 313 312 312 312 310 309 307 306 306 305 305 305 305 305 305 305 304 304 303 302 301 300 299 298 298 298 299
311 312 312 312 312 312 313 313 314 314 314 315 317 318 318 318 317 318 319 318 318 318 318 317 317 316 315 314 310 305 303 303 302 301 303 308 312 313 313 313 313 313 313 314 312 310 311 313 314 313 312 310 309 308 307 307 309 310 311 312 311 311 310 308 307 306 304 304 304 304 304 304 304 304 303 303 302 301 300 299 298 298 298 299 299
309 310 310 310 311 311 312 312 312 312 313 313 314 314 314 315 315 315 316 316 316 315 315 315 315 314 314 313 310 305 303 302 302 301 302 305 308 311 312 312 312 312 312 312 310 308 309 311 312 311 309 307 306 305 304 306 309 310 309 310 310 310 309 308 307 306 304 304 304 304 304 303 303 303 302 302 301 301 300 299 298 298 298 299 300
308 308 309 309 310 310 310 311 312 311 312 312 312 312 312 312 312 313 313 313 313 313 313 313 313 313 313 313 311 308 304 303 302 302 301 302 305 308 311 311 311 311 311 312 310 308 307 308 309 308 306 305 305 304 303 305 308 308 306 307 308 308 307 307 306 305 304 303 303 303 303 303 302 302 302 302 302 301 301 300 299 298 298 299 299
306 306 307 308 309 309 309 310 311 311 312 312 312 312 312 311 311 312 312 312 312 312 312 312 311 311 312 313 312 312 309 306 303 302 302 301 302 306 310 311 310 310 310 310 311 309 307 306 306 305 305 304 304 305 304 305 305 305 305 305 304 304 304 304 303 303 303 303 303 302 302 302 302 302 302 302 302 302 301 300 299 299 299 299 298
303 304 306 307 307 307 308 309 309 310 311 312 312 312 312 312 311 312 312 312 312 311 311 311 311 311 312 312 311 312 313 310 306 303 301 301 301 305 310 310 308 308 308 308 309 309 308 306 304 305 305 304 305 305 305 305 305 305 304 303 302 302 302 301 301 301 302 302 302 301 300 300 300 300 300 300 300 300 300 299 298 298 298 297 297
303 303 304 305 305 306 306 307 308 309 309 310 311 311 312 312 312 312 312 311 310 311 311 311 311 311 311 311 310 310 312 312 309 305 302 300 300 303 308 310 308 305 306 308 308 308 308 306 304 305 305 305 305 305 305 305 304 304 302 302 300 299 298 298 298 299 300 300 300 299 299 299 299 299 299 299 298 298 298 297 297 297 296 296 296
302 303 303 303 304 304 304 305 306 307 308 308 309 310 311 312 312 312 312 311 311 310 310 311 311 310 310 310 310 311 312 312 311 307 303 301 300 301 305 307 305 302 305 308 308 307 307 306 305 305 304 304 305 305 303 303 303 302 302 300 298 296 296 297 298 299 299 299 299 299 299 299 299 298 298 297 297 297 296 296 296 296 296 295 295
302 302 302 303 303 303 303 303 304 305 306 307 308 308 309 310 311 311 311 311 311 311 310 310 311 310 310 310 309 310 312 312 311 308 305 302 301 301 301 302 300 300 304 307 308 307 306 306 304 304 304 305 304 303 302 302 301 301 300 297 295 296 297 299 299 299 298 298 299 299 298 298 298 297 296 296 296 296 296 296 295 295 295 294 294
301 301 302 302 303 303 303 302 302 302 303 304 306 307 307 309 310 310 310 311 311 310 310 310 310 309 309 309 309 309 310 312 311 308 306 304 303 302 301 301 300 300 303 307 308 307 305 305 304 304 304 304 302 302 301 301 300 298 297 296 296 298 299 299 298 297 297 298 298 298 298 297 296 296 295 295 295 295 295 295 294 294 294 294 293
300 300 301 301 301 302 302 302 302 302 302 302 304 305 307 307 308 309 309 310 310 310 310 310 310 310 309 309 309 309 309 310 310 308 306 305 304 303 302 301 301 302 303 306 306 306 304 304 304 304 303 301 301 301 300 299 298 297 297 297 298 299 298 297 297 296 297 297 298 297 296 296 295 295 294 294 294 294 294 294 294 293 293 293 293
299 299 300 300 300 301 301 302 302 301 302 302 302 304 305 306 306 307 308 308 309 309 310 310 309 309 309 308 308 307 307 308 308 308 307 305 304 304 302 301 302 303 304 305 305 304 303 303 302 302 301 300 299 299 299 298 298 297 297 298 298 298 298 298 297 297 297 297 297 296 295 295 294 294 293 293 293 293 293 293 293 292 292 292 292
298 298 298 299 299 299 300 300 301 301 301 301 301 302 302 303 304 305 306 307 308 308 308 308 308 308 309 308 307 307 306 307 308 307 306 305 304 303 302 301 302 304 305 305 304 303 302 301 300 299 299 299 299 298 298 298 298 298 298 298 297 297 297 297 297 296 296 295 295 294 294 294 293 293 293 293 292 292 292 292 292 292 292 292 292
297 297 298 298 298 298 299 299 300 301 301 301 301 301 301 301 301 302 304 305 306 307 307 307 307 308 307 307 307 306 306 306 307 307 306 305 304 303 302 300 302 304 305 304 303 303 301 300 299 299 299 299 299 298 299 299 298 297 297 297 296 296 297 296 296 295 295 295 294 294 294 293 293 293 292 292 292 291 291 291 291 291 291 291 291
296 296 297 297 297 297 298 298 299 300 300 301 301 301 301 301 301 302 302 302 304 306 307 306 307 307 308 307 307 306 305 305 305 305 306 305 304 304 302 302 302 305 305 304 302 302 300 299 299 299 299 300 299 299 299 298 297 296 296 296 296 296 296 295 295 295 295 295 294 294 293 293 293 292 292 292 292 291 291 291 291 291 291 291 291
296 296 296 296 296 296 297 297 298 299 299 300 301 301 301 302 303 303 303 303 304 306 306 306 306 306 307 307 306 305 305 305 304 305 305 305 304 304 304 303 304 305 305 303 302 301 300 299 300 300 300 300 300 299 297 297 296 296 296 296 296 296 295 295 295 295 295 294 294 293 293 293 292 292 292 292 291 291 291 291 291 291 291 291 291
295 295 295 295 295 295 295 296 297 298 299 300 300 301 301 302 302 303 303 304 304 304 304 305 305 304 305 306 305 304 304 304 304 305 305 304 303 303 303 304 304 304 304 302 301 301 300 300 301 301 301 300 299 297 297 297 296 296 296 295 295 295 295 295 295 295 294 294 294 293 293 293 292 292 292 291 291 291 291 291 291 291 291 291 291
294 294 294 294 294 294 294 295 295 297 298 299 300 300 301 301 302 302 303 303 302 302 302 302 302 303 303 304 304 303 303 302 302 302 302 301 301 300 301 302 303 303 302 302 301 301 301 301 301 301 300 299 298 297 296 296 296 295 295 295 295 295 295 294 294 294 293 293 293 293 293 292 292 292 291 292 291 291 291 291 291 291 291 291 290
293 293 293 293 293 293 294 294 295 296 297 298 299 300 301 301 301 302 303 303 302 302 302 301 301 301 301 301 302 302 301 301 300 300 299 299 299 299 300 301 301 301 301 301 301 301 301 301 301 300 299 298 297 296 296 296 295 295 294 294 294 293 293 293 293 293 292 292 292 293 292 292 292 292 292 292 292 291 291 291 291 291 290 290 290
292 292 292 293 293 294 294 295 296 297 297 297 298 299 300 300 301 301 301 302 303 303 302 301 300 299 299 299 299 299 299 299 298 298 297 297 297 298 299 300 301 301 301 301 300 300 300 300 300 299 298 297 296 296 296 296 295 294 294 293 292 292 292 292 292 292 292 292 292 292 292 292 292 292 292 292 291 291 291 290 290 290 290 290 290
292 292 292 293 293 294 294 294 295 296 296 296 298 298 299 300 300 299 299 300 301 301 301 300 300 299 298 297 296 296 297 297 297 296 297 297 297 298 299 300 300 300 300 300 300 300 300 299 299 298 297 296 296 295 295 295 294 294 293 292 291 291 291 291 291 292 292 292 292 292 292 292 292 291 291 291 291 290 290 290 290 289 289 289 289
292 292 292 293 293 293 293 294 294 295 296 296 297 297 297 297 298 298 298 299 299 299 300 300 300 299 298 296 295 296 297 297 296 297 297 297 297 298 299 299 299 299 299 299 299 299 299 299 298 297 297 296 296 295 295 294 294 293 292 291 291 291 291 290 291 292 292 292 292 292 292 291 291 291 291 290 290 290 290 289 289 289 289 290 290
293 293 293 293 293 293 293 294 295 295 296 296 295 295 295 295 295 296 296 297 298 298 299 299 300 300 299 298 297 297 297 296 296 296 297 297 297 297 298 298 298 298 298 298 299 299 298 298 297 297 297 296 295 295 294 294 293 293 292 291 291 291 290 291 291 292 292 291 291 291 291 291 291 290 290 290 289 289 289 289 289 289 290 290 290
293 293 294 294 294 294 295 295 296 295 295 294 294 293 293 293 293 294 295 295 296 297 298 298 298 298 298 298 298 297 297 297 296 296 296 296 296 296 297 298 298 299 298 298 298 298 297 297 297 296 296 295 295 294 293 293 293 292 291 291 291 290 290 290 291 291 291 290 291 291 291 290 290 289 289 289 289 289 289 290 290 290 290 290 290
294 294 295 295 295 296 296 296 295 294 293 292 292 292 292 292 292 293 293 294 294 295 296 297 297 297 297 297 297 297 297 297 297 296 296 295 295 296 297 298 298 298 297 297 296 296 296 296 296 295 295 294 294 293 292 292 292 291 291 290 290 290 290 290 291 290 290 290 290 290 290 289 289 289 289 289 289 289 290 290 290 290 290 290 290
295 295 296 296 297 297 296 296 295 294 293 292 291 291 291 291 291 292 292 293 293 294 295 295 295 295 295 296 296 297 297 297 297 297 296 295 295 296 297 297 297 297 296 295 296 296 295 295 295 294 294 293 293 292 292 292 291 291 290 289 289 289 289 289 289 289 288 289 289 289 289 289 289 289 289 289 289 289 289 289 290 290 290 290 291
296 297 297 297 297 296 296 296 295 294 293 292 291 291 291 291 291 291 291 291 292 292 293 293 293 293 294 294 295 295 296 296 296 296 295 295 295 296 296 296 296 295 295 295 295 295 295 294 294 293 292 292 291 291 291 290 290 290 289 289 288 288 288 288 287 287 287 288 288 288 288 288 289 289 289 289 289 289 289 289 290 290 290 290 291
297 297 297 297 297 296 296 295 295 294 293 292 292 291 290 290 290 290 290 290 291 291 291 291 292 292 292 293 294 294 294 295 295 294 294 294 294 294 295 295 294 294 294 294 294 294 294 293 292 291 291 291 290 290 290 290 289 289 289 289 289 288 287 287 286 286 286 287 288 288 288 288 288 288 288 288 289 289 289 290 290 290 290 290 291
296 296 296 297 297 296 295 295 295 294 294 293 292 291 290 290 290 290 290 290 290 290 290 291 291 291 292 292 292 292 293 293 293 293 293 293 293 293 293 293 293 293 293 293 293 292 292 291 291 290 290 290 289 289 289 289 288 288 288 288 288 288 287 287 286 286 286 287 288 288 288 287 287 287 288 288 288 289 289 290 290 290 290 290 291
296 296 296 296 296 296 295 295 295 294 294 293 293 292 291 291 290 290 290 290 290 290 290 290 290 290 291 291 291 291 291 291 291 292 292 292 292 292 292 292 292 292 292 291 291 291 291 291 290 290 289 289 289 289 289 288 288 288 288 288 288 287 287 287 286 286 286 286 287 288 288 288 287 287 288 288 289 289 289 290 290 290 290 290 291
296 296 296 296 296 296 295 295 295 294 294 294 293 292 292 291 291 291 291 290 290 290 290 290 290 290 290 291 291 291 291 291 291 291 291 291 292 292 291 291 292 291 291 291 291 291 290 290 290 289 289 288 289 289 288 288 288 288 288 288 287 287 287 287 287 287 286 286 286 287 288 289 288 287 288 289 289 289 289 290 290 290 290 291 291
297 296 297 297 296 296 296 296 295 294 294 294 293 293 292 291 291 291 291 291 291 290 290 290 290 290 290 291 291 291 291 290 290 290 290 291 291 291 291 291 291 291 291 290 290 290 290 289 289 288 288 287 287 287 288 288 287 287 287 287 287 287 287 287 287 287 287 286 286 286 287 288 288 288 288 289 289 289 290 290 290 290 290 291 291
296 296 296 296 296 296 296 296 295 295 294 294 294 293 293 292 292 291 291 291 291 291 291 291 291 291 291 290 290 290 290 290 290 290 290 290 290 290 290 290 290 290 290 289 289 289 289 289 288 288 287 286 287 287 287 287 286 286 286 286 286 287 287 288 288 288 288 287 286 286 287 288 288 288 288 289 289 289 290 290 290 290 291 291 291
296 296 296 295 295 295 295 295 295 295 295 294 294 294 294 293 293 292 292 291 291 291 291 291 291 291 290 290 290 290 290 290 289 289 289 289 289 289 290 290 290 290 289 289 289 289 288 288 288 288 287 286 286 286 286 286 286 286 286 286 286 286 287 287 287 288 288 288 287 286 286 287 288 288 288 288 289 290 290 290 290 291 291 291 291
295 295 295 294 294 294 294 295 295 294 294 294 294 294 293 293 293 293 292 292 292 291 291 291 291 290 290 290 289 289 289 289 289 289 289 289 289 289 289 289 289 289 289 289 289 288 287 287 287 287 286 286 286 286 285 285 285 285 284 284 284 284 285 285 286 287 287 288 287 286 286 287 287 288 288 288 289 290 290 290 290 291 291 291 291
Wind_Speed
26 22 18 22 23 18 16 16 14 15 16 16 18 17 16 17 16 16 15 14 13 13 12 11 11 11 11 10 8 7 6 6 5 5 5 5 6 6 6 6 6 7 8 8 7 7 7 9 9 9 8 6 7 7 6 6 7 10 11 11 10 11 14 21 15 9 8 7 7 6 5 4 6 9 7 3 2 3 7 3 5 2 1 2 3
25 24 22 23 22 19 18 16 15 16 16 16 16 16 16 17 17 15 15 13 13 12 11 11 11 10 10 10 9 8 6 6 5 4 4 5 5 4 4 4 5 6 5 5 5 6 6 7 6 6 5 6 8 8 6 8 7 11 12 12 12 11 11 16 16 13 10 7 6 5 4 1 3 7 6 2 1 3 7 5 2 1 1 3 3
20 22 24 22 19 16 15 14 13 14 16 17 16 15 15 17 15 14 14 13 12 11 10 10 10 9 9 10 9 8 8 7 6 5 4 4 3 3 3 3 4 4 3 2 4 6 5 5 5 5 4 5 7 7 6 8 9 10 8 7 9 9 8 8 9 11 12 10 7 7 6 1 2 6 7 3 1 2 6 7 3 3 1 4 5
17 18 22 22 18 14 12 14 15 15 14 14 15 15 15 15 14 13 12 12 11 10 10 10 10 9 9 9 9 8 8 8 6 5 5 5 3 3 2 2 3 3 2 2 3 5 5 4 4 3 3 4 4 5 5 5 7 8 6 6 9 8 5 5 7 6 7 7 7 9 8 3 2 5 4 2 1 1 3 5 4 4 4 1 7
13 13 15 17 18 16 14 16 19 14 8 6 11 16 16 15 15 13 12 11 11 10 10 11 10 10 9 9 9 10 9 9 8 6 6 5 4 4 4 3 3 2 1 2 1 2 4 3 2 2 2 2 2 3 5 4 5 7 8 8 9 7 4 3 4 6 5 5 6 7 5 3 4 4 1 1 3 4 3 2 2 2 2 2 7
8 10 12 14 17 17 15 16 17 12 8 9 13 15 16 16 15 14 13 11 11 11 10 11 11 10 9 6 5 5 7 10 10 8 7 7 5 4 2 1 2 4 5 5 4 2 0 0 2 2 1 0 1 2 3 2 3 4 5 6 7 5 4 3 2 3 4 4 3 3 1 1 2 1 1 2 5 8 7 4 2 2 5 7 9
6 9 10 10 12 12 13 16 18 17 17 19 17 12 13 16 15 14 14 12 12 12 10 10 10 8 6 2 6 9 5 3 6 6 7 7 6 6 5 3 3 7 8 5 4 4 1 2 4 3 1 2 2 0 1 1 2 3 4 5 6 5 5 5 4 4 5 4 2 2 1 2 3 2 2 3 6 7 5 4 4 6 8 11 11
7 9 6 5 6 9 14 15 17 20 22 22 19 12 10 14 16 15 14 14 14 12 9 8 8 5 2 1 4 8 5 3 8 8 7 8 8 8 7 6 8 10 9 5 4 5 4 3 5 4 4 4 4 2 2 2 1 0 2 3 5 5 5 6 6 5 4 3 3 4 3 4 5 5 5 6 6 4 4 5 6 8 9 10 11
9 9 7 6 7 9 15 17 17 19 20 19 17 10 7 10 15 15 14 14 13 11 8 5 5 4 2 4 3 4 3 7 10 8 6 6 8 6 5 8 11 10 8 6 5 5 5 5 5 4 5 5 4 4 4 4 4 2 0 1 3 4 5 5 6 6 5 4 3 3 4 5 6 5 3 4 5 4 6 8 9 8 9 11 12
13 14 12 10 10 11 15 19 17 14 13 14 13 9 6 9 12 13 13 12 11 11 8 4 2 2 2 2 3 2 5 7 8 7 6 5 6 5 4 7 9 6 4 6 7 6 6 6 5 3 4 5 5 5 5 4 5 4 4 4 4 4 4 5 5 6 7 7 6 8 7 4 4 4 3 3 4 4 5 6 8 9 11 12 13
11 14 13 10 10 9 11 13 14 13 12 12 13 11 11 11 11 11 11 9 9 10 8 4 3 3 2 2 5 8 11 10 8 8 7 7 6 4 4 3 3 2 4 6 7 7 7 7 5 1 1 2 3 3 4 4 4 5 7 8 8 7 6 5 4 4 6 6 7 11 10 5 2 3 2 3 4 4 4 6 9 11 11 11 12
9 10 11 10 9 7 8 10 10 10 10 11 12 12 11 10 9 10 10 9 10 10 9 8 6 5 4 3 6 9 10 9 8 7 6 6 5 3 4 5 4 3 5 6 6 7 7 7 6 4 4 4 2 1 1 1 2 2 3 5 7 8 8 8 7 5 4 5 7 11 11 7 4 4 2 3 4 6 7 9 9 10 11 12 13
10 11 11 10 9 9 10 11 10 9 9 11 11 10 9 9 8 9 10 10 9 9 9 8 8 8 8 8 9 9 9 7 6 5 5 6 6 5 4 5 6 5 6 6 6 7 8 8 8 7 5 4 3 2 1 1 3 4 4 2 4 5 8 9 10 9 9 9 8 9 10 8 5 4 2 3 5 7 9 10 10 11 14 15 16
10 11 10 8 8 7 7 8 8 8 8 10 10 9 9 9 8 8 10 10 8 8 9 10 11 11 10 9 8 8 8 8 8 8 9 9 8 5 4 4 5 6 6 5 4 5 4 5 8 10 7 5 6 5 3 1 3 6 5 2 1 2 3 6 8 10 10 10 9 8 6 4 2 2 3 6 8 10 10 11 13 15 17 18 19
9 10 10 10 10 10 9 8 8 7 7 8 9 7 8 9 8 8 8 8 8 8 10 11 11 11 12 11 10 11 11 11 10 9 9 8 7 7 7 6 6 7 5 5 5 5 5 5 6 8 7 6 6 5 4 2 1 3 4 2 1 4 6 6 6 5 6 5 5 5 4 3 3 4 8 10 12 12 12 13 14 16 18 19 19
10 9 9 9 10 11 12 11 12 12 13 12 10 6 6 8 9 10 8 7 8 8 9 11 12 16 17 15 14 15 13 12 10 9 8 8 10 11 9 7 8 8 6 5 5 6 6 6 5 5 4 4 4 2 2 3 2 1 3 5 3 5 6 6 5 3 3 3 3 5 5 6 8 10 12 14 14 14 14 15 14 14 15 16 17
10 12 13 12 9 8 9 9 9 11 15 17 15 11 9 9 8 8 9 9 10 10 10 11 14 18 19 15 15 15 13 11 11 10 10 11 12 12 9 8 11 10 8 6 4 4 5 6 7 6 4 4 3 1 1 3 2 3 4 6 6 4 5 4 2 2 4 6 6 7 9 10 12 13 14 15 15 15 15 14 12 11 12 14 14
15 15 15 13 11 11 10 8 7 6 7 11 15 16 15 14 12 12 11 12 12 13 13 13 14 17 18 15 14 14 14 12 11 11 11 11 12 10 7 8 13 13 10 7 4 3 5 6 7 6 4 3 1 1 1 1 1 3 3 4 7 7 5 3 2 2 3 5 7 9 11 12 14 15 15 15 14 13 12 9 7 8 10 12 13
17 16 16 15 13 13 12 10 7 6 6 5 7 10 10 10 12 14 14 14 16 16 16 15 15 16 17 17 15 14 14 14 12 11 11 11 12 10 5 4 12 15 13 11 8 6 7 7 5 3 1 1 1 2 2 0 2 4 5 5 7 9 5 1 2 2 2 5 9 11 14 15 16 15 14 13 12 11 9 7 6 7 9 11 13
17 16 15 13 12 11 10 9 7 6 6 7 4 1 2 3 4 6 9 11 13 16 17 17 17 16 16 18 17 14 14 13 12 12 12 12 13 10 3 1 8 14 14 13 13 11 10 8 6 4 2 1 1 2 1 1 1 4 6 8 9 9 6 2 1 3 6 9 11 12 13 14 14 14 13 13 12 12 11 9 8 9 10 11 14
16 15 14 12 13 14 12 11 10 8 6 5 5 4 4 5 4 5 7 8 8 9 12 15 17 17 17 17 17 15 14 14 13 12 13 14 13 11 5 3 6 9 9 11 15 14 11 9 8 5 4 2 1 1 2 3 3 4 6 6 5 2 1 2 5 8 10 11 11 11 11 11 12 13 13 13 12 11 11 11 10 10 11 12 14
15 14 13 12 13 14 13 13 12 11 9 8 8 8 7 6 7 7 8 9 9 7 7 10 13 16 18 17 15 15 15 14 14 14 15 15 13 11 10 6 6 6 4 6 14 16 12 10 9 6 5 4 3 3 4 3 3 4 6 7 8 8 8 7 7 7 8 8 9 10 11 12 13 12 12 10 7 5 5 7 8 9 11 13 15
12 12 12 12 12 13 13 13 12 11 10 10 10 11 10 8 8 9 10 10 11 10 9 10 9 10 15 17 15 15 16 16 15 15 16 16 14 13 12 9 7 7 3 3 10 16 14 12 10 7 6 4 3 4 4 4 3 4 6 7 7 8 8 7 5 5 6 7 8 10 11 12 11 11 9 9 8 8 8 10 12 14 16 17 17
11 12 11 11 12 12 12 13 13 12 12 12 12 12 12 12 12 11 11 11 12 13 13 14 12 11 12 14 15 16 18 18 18 17 17 16 14 13 13 11 10 10 6 4 8 14 14 12 10 7 5 4 4 5 5 3 3 4 5 6 7 6 4 3 4 5 6 7 8 9 9 9 9 10 11 12 14 15 15 15 16 16 16 17 17
12 12 12 12 12 13 13 14 14 14 15 15 14 14 14 14 14 13 12 13 14 14 13 13 15 16 16 15 16 18 20 21 21 19 19 18 15 13 12 12 11 11 7 5 7 10 11 10 9 7 5 5 5 5 5 3 3 5 5 5 4 1 2 2 4 5 6 7 8 7 7 8 9 10 13 15 16 16 15 15 15 15 15 16 16
14 14 14 14 14 14 15 16 16 17 17 17 17 17 16 15 15 15 16 17 16 15 16 15 15 15 14 12 11 11 12 17 21 22 22 20 18 15 13 12 12 10 8 7 8 10 10 9 8 6 6 7 6 5 3 2 3 3 2 1 1 2 2 3 4 5 6 7 7 5 4 6 8 11 13 15 14 14 14 15 16 16 15 16 17
16 16 15 15 15 15 16 17 17 17 18 18 18 18 18 17 17 17 18 19 19 18 16 16 12 8 6 7 7 7 5 7 14 21 25 24 20 17 15 13 13 12 10 9 9 11 11 9 7 7 7 7 6 4 3 1 1 2 3 2 2 2 1 3 4 5 7 8 7 5 4 6 9 11 13 14 14 14 14 15 16 16 15 16 17
15 16 17 17 17 17 17 18 19 19 18 18 19 19 19 18 18 18 18 17 17 15 12 11 8 5 4 4 4 6 7 8 9 14 22 25 23 19 17 16 16 15 13 13 13 12 11 10 9 9 8 7 6 5 4 2 3 4 3 1 1 3 4 5 4 5 6 6 5 6 7 9 10 12 13 13 13 14 14 15 16 16 16 16 16
14 14 15 16 17 18 18 18 18 19 19 20 21 21 21 22 21 21 19 18 16 16 15 15 13 11 10 9 8 8 9 10 11 12 15 19 20 19 18 18 17 16 16 17 16 14 13 12 11 11 9 8 8 7 7 7 5 5 4 3 3 3 4 4 4 3 4 5 7 7 8 9 10 10 12 13 13 14 14 15 15 16 16 16 16
16 15 14 14 14 16 18 18 17 18 19 19 20 21 22 23 24 23 23 22 20 18 17 17 16 16 15 16 18 18 15 12 14 16 18 17 16 16 18 20 18 18 18 18 16 15 15 13 13 12 10 9 9 9 10 9 7 5 5 5 3 3 4 4 3 4 6 9 9 8 7 8 9 10 11 12 13 14 15 14 14 15 15 16 16
16 16 16 16 15 16 18 18 18 19 19 19 20 20 20 20 22 23 24 24 23 21 20 19 17 16 17 17 18 19 18 16 16 19 22 21 18 18 20 21 20 22 22 19 16 15 15 15 13 13 13 12 12 11 10 8 6 5 5 4 4 4 4 5 5 6 7 8 7 6 6 8 9 10 10 11 12 14 15 15 14 15 15 15 16
15 16 17 18 18 18 18 17 17 19 20 20 20 19 19 18 17 16 16 16 16 16 17 17 15 14 16 18 17 17 17 18 18 19 22 23 23 24 26 25 24 24 24 20 16 14 15 15 15 15 16 14 12 10 9 8 6 5 4 3 4 5 4 3 5 5 5 4 3 4 6 8 9 9 10 11 12 14 16 15 15 14 15 15 15
14 15 16 17 18 18 18 19 20 20 20 19 18 17 18 19 18 15 12 12 12 10 9 10 9 9 11 14 15 16 17 17 19 23 24 23 20 20 21 21 21 22 21 18 15 14 15 15 16 16 15 12 10 9 8 6 5 5 4 3 2 3 2 2 4 5 4 3 4 5 6 6 8 10 11 12 13 15 16 16 15 14 13 13 14
13 14 16 17 17 16 17 17 19 20 20 20 19 19 19 20 21 18 13 8 10 11 10 9 8 9 11 12 14 18 19 18 17 18 19 17 16 16 16 17 18 20 19 16 13 12 13 13 13 12 12 11 10 10 9 7 6 6 5 3 2 1 0 1 3 5 6 6 6 6 6 8 9 11 11 12 14 15 15 14 13 12 12 12 13
12 13 15 15 14 14 14 15 16 17 19 20 19 19 19 19 19 17 14 9 5 5 5 5 7 9 11 12 14 15 16 15 13 12 11 11 12 14 16 19 21 20 17 14 11 9 10 11 10 9 10 11 11 11 9 7 6 5 5 4 3 1 1 2 3 6 7 7 6 6 7 8 9 9 10 12 12 12 12 12 11 11 12 12 14
11 11 12 12 12 12 12 13 15 17 19 21 21 19 17 16 15 15 15 11 7 4 3 2 5 6 8 11 12 13 14 14 14 13 12 11 11 14 17 20 22 21 18 16 13 11 10 10 10 9 10 11 11 10 9 8 7 6 6 4 3 1 1 1 2 4 5 5 7 8 9 9 9 9 10 10 11 11 11 12 12 13 14 14 15
11 11 11 11 11 13 14 16 18 19 20 21 20 17 15 13 13 13 13 12 9 6 4 2 3 5 7 9 10 12 14 14 13 13 13 13 13 16 18 20 21 21 20 18 16 13 11 11 11 10 10 11 11 10 10 9 7 6 5 3 2 2 1 2 4 4 3 4 6 8 10 11 11 10 10 10 11 10 10 11 12 13 14 16 17
9 10 11 12 14 16 18 19 19 20 18 17 16 15 15 15 14 13 13 11 9 6 2 2 5 6 7 8 9 10 11 12 12 12 12 12 14 17 18 19 19 20 19 19 17 15 13 12 12 11 10 11 11 11 12 10 6 5 5 3 3 4 3 3 4 2 2 4 6 8 9 10 11 11 11 10 10 10 10 11 12 14 15 16 16
10 11 13 14 15 15 15 16 18 18 15 14 15 16 17 17 17 16 15 14 12 8 4 2 4 6 8 8 7 7 7 8 9 10 11 13 16 18 18 16 15 16 17 16 16 16 15 14 14 12 11 11 10 10 12 10 6 4 4 3 2 2 1 2 2 2 2 4 6 7 8 9 10 10 10 9 10 10 12 13 13 13 14 15 16
11 12 13 12 12 12 12 14 14 12 12 15 16 15 15 16 16 16 15 15 13 11 8 5 2 6 8 7 5 5 6 6 5 7 9 11 15 17 17 14 13 14 14 13 11 11 13 16 16 13 11 10 9 10 11 9 4 3 3 2 2 3 4 4 3 1 3 5 6 7 8 9 10 10 9 9 10 12 12 12 12 13 14 16 17
11 13 13 11 10 11 11 9 8 12 15 16 15 13 13 14 14 13 13 13 13 12 11 8 6 8 9 9 9 7 6 5 6 6 5 7 11 16 16 13 12 13 13 11 10 9 11 14 15 12 9 9 8 9 9 7 4 3 4 5 5 5 5 6 4 3 4 5 5 7 8 8 9 9 9 10 11 11 11 12 13 15 16 16 17
12 13 11 8 7 7 7 8 11 13 14 14 13 13 13 13 13 12 11 11 10 10 9 7 8 7 6 8 9 7 4 4 6 5 3 4 9 13 12 11 11 13 13 12 10 9 10 12 14 12 10 9 8 7 7 6 4 5 6 6 5 5 4 4 4 4 4 4 5 6 7 8 8 9 10 11 11 10 10 12 15 16 16 17 17
9 9 7 6 5 6 9 11 11 10 11 12 12 12 12 12 11 11 10 9 8 7 6 6 6 5 3 3 5 4 4 5 7 6 6 6 8 11 13 15 16 15 12 10 10 10 11 13 14 14 14 14 12 11 10 9 7 8 9 7 5 5 4 3 4 4 5 6 5 6 7 8 8 9 9 9 8 8 10 13 16 17 17 16 16
8 7 6 6 7 8 9 10 10 10 11 10 10 11 11 11 11 11 10 9 9 7 6 5 5 5 5 5 6 8 10 12 12 12 12 14 16 18 19 19 18 15 11 9 10 11 13 14 15 15 15 14 11 10 11 9 7 8 9 7 5 4 4 5 6 6 7 7 5 5 6 7 7 7 7 6 7 9 13 16 17 17 17 15 15
6 5 5 6 7 7 7 8 8 9 10 10 9 9 11 12 12 12 11 10 9 8 8 8 8 10 11 12 14 16 17 18 18 18 18 19 20 21 20 18 16 13 11 11 13 15 16 16 15 14 13 11 7 5 6 6 6 6 7 6 4 4 5 5 6 7 7 7 6 6 6 6 6 5 4 6 9 12 16 18 17 16 15 15 16
4 4 5 5 6 6 6 6 7 8 9 9 8 8 10 13 14 14 12 12 12 12 12 13 14 16 17 18 20 21 22 22 22 21 20 21 22 22 20 17 15 14 14 15 17 18 17 15 14 13 12 12 10 8 7 7 6 3 3 2 3 4 5 5 6 6 7 8 8 8 7 7 7 5 5 7 11 14 16 17 16 14 14 16 18
4 3 4 4 5 5 5 5 6 7 8 7 8 9 10 10 12 13 14 15 16 16 17 18 18 19 19 20 21 22 23 23 22 20 19 18 18 17 15 13 12 12 13 13 15 15 14 13 11 11 11 12 11 10 10 8 5 2 0 2 4 5 5 6 7 7 7 8 9 9 8 8 8 7 6 8 11 14 17 17 15 14 15 16 17
4 4 4 4 4 4 3 3 5 7 6 5 6 9 11 12 12 13 14 15 16 17 18 20 20 21 21 21 22 22 22 21 20 19 18 17 16 14 13 12 12 11 10 10 10 11 11 11 10 9 9 9 8 7 7 6 3 1 2 4 5 6 7 7 7 8 8 8 8 9 9 8 7 6 6 8 12 15 17 17 16 16 18 17 16
5 5 5 5 5 4 3 2 3 5 5 6 6 7 9 11 13 13 13 15 17 17 18 19 20 20 20 20 19 19 19 18 17 17 16 17 17 15 15 15 13 10 8 8 7 6 7 8 7 7 8 9 7 4 3 2 0 2 4 5 6 7 8 8 8 9 9 8 8 9 9 7 6 6 7 10 13 14 14 14 16 19 19 17 14
5 6 7 7 6 5 5 5 5 4 5 7 7 7 8 9 10 10 12 14 16 17 17 18 18 18 18 18 18 17 17 15 14 13 13 15 16 15 13 12 11 9 8 8 7 7 6 6 6 6 8 8 6 3 1 2 3 5 5 6 7 8 9 9 9 10 10 9 9 9 8 7 6 7 10 12 13 13 13 15 17 20 19 16 12
4 6 8 8 7 5 5 5 7 8 7 7 8 8 9 9 9 9 10 11 12 13 14 14 14 14 15 15 15 15 15 14 13 12 12 12 13 12 11 11 11 10 10 10 9 8 8 8 7 6 7 7 4 1 2 4 5 5 6 7 9 10 10 10 10 10 10 10 9 8 7 8 9 11 12 12 11 12 15 16 17 18 17 14 12
Wind_Direction
173 175 176 174 170 169 174 178 176 170 165 162 160 158 161 161 156 158 164 167 169 168 167 166 160 155 152 147 145 144 141 139 135 127 120 121 116 109 107 107 102 93 93 92 84 82 81 75 73 63 57 58 48 63 73 48 67 83 73 84 70 42 84 109 110 104 107 127 137 129 146 164 158 150 132 93 48 165 190 231 344 319 194 40 12
172 179 182 180 177 175 179 181 178 169 163 163 163 160 163 165 161 162 166 168 172 172 171 170 168 164 159 155 154 155 155 154 156 153 147 142 131 123 124 112 106 111 109 106 107 99 82 77 77 64 63 54 37 55 57 13 38 79 72 72 69 49 73 106 122 135 139 148 150 150 172 169 150 160 145 116 269 198 196 222 314 230 234 353 342
173 181 185 185 181 176 179 184 177 166 162 166 166 162 163 165 163 166 169 170 173 177 178 175 174 174 170 167 166 169 170 168 168 169 162 158 152 148 149 128 118 128 136 132 124 110 90 84 84 63 55 52 41 53 51 16 38 75 77 79 82 67 61 80 108 136 151 164 170 154 151 100 88 155 158 162 211 169 194 212 194 150 226 319 311
174 178 185 188 184 174 175 185 183 173 165 166 167 165 167 167 166 167 170 173 179 182 184 183 181 181 181 177 175 175 175 174 172 175 177 175 173 168 162 157 153 158 180 181 136 120 119 106 96 76 50 55 47 44 49 44 49 52 48 76 97 91 68 50 58 81 123 143 137 132 142 154 125 143 163 199 257 246 206 213 198 177 188 258 313
176 173 176 181 182 174 170 183 188 175 151 161 174 172 172 173 173 173 173 175 182 186 186 188 189 192 194 195 196 193 189 183 178 182 190 190 197 206 205 212 213 213 285 312 1 115 144 136 125 129 77 53 38 33 47 61 46 23 22 54 81 84 67 66 60 50 63 92 109 126 152 173 143 151 210 348 359 343 323 255 209 150 138 27 345
164 170 171 178 188 180 166 178 183 161 141 177 184 175 175 178 175 176 178 178 183 188 191 194 196 199 200 206 229 219 191 185 184 190 198 202 219 244 249 262 270 284 308 322 321 321 13 211 209 166 96 37 302 20 24 17 20 3 353 23 49 48 41 55 56 47 70 79 80 105 126 4 51 119 229 341 340 334 330 310 295 47 28 6 353
156 184 186 186 193 179 163 176 184 175 173 184 188 180 177 177 175 177 181 183 185 187 193 199 201 205 210 244 351 7 37 148 189 209 220 225 249 290 315 325 288 275 279 281 265 261 281 282 260 240 226 235 228 329 5 324 16 356 323 357 24 15 12 19 5 24 70 80 20 356 328 309 313 279 259 296 311 322 340 341 326 332 340 342 339
183 209 213 191 176 160 158 170 187 191 185 184 186 182 167 169 174 178 181 180 181 181 184 196 201 201 183 124 0 358 354 228 222 238 250 254 267 290 300 276 252 255 263 260 239 223 201 227 250 237 232 243 238 216 189 186 170 336 312 334 347 339 351 4 359 4 25 31 0 334 291 283 287 273 273 290 299 317 354 358 343 328 324 326 326
174 199 207 194 185 172 162 162 174 188 187 184 182 164 136 162 174 180 188 187 182 181 182 199 214 201 131 109 82 10 317 222 220 240 250 249 257 265 272 267 260 257 253 238 220 201 189 216 240 229 228 239 233 207 193 188 188 181 217 272 291 307 316 323 334 340 329 323 328 299 264 273 286 284 294 305 305 320 326 323 323 317 314 317 317
172 183 184 177 172 168 160 154 155 161 169 180 177 156 157 188 185 186 194 195 195 200 203 209 206 187 198 196 176 228 265 233 223 238 235 230 251 242 223 255 267 265 241 212 197 180 179 212 237 247 244 243 230 218 219 221 221 240 265 256 246 263 283 290 303 315 313 312 312 302 287 273 291 307 315 316 320 329 325 317 316 317 316 312 310
162 169 166 156 150 150 143 139 144 146 149 166 171 168 184 195 192 192 193 190 192 196 192 172 141 147 193 229 222 237 253 251 239 240 240 246 264 253 210 220 243 214 185 186 186 172 170 191 203 200 224 223 221 225 235 249 255 263 270 265 261 262 261 259 271 295 309 318 326 324 316 305 328 345 311 296 317 333 338 331 326 328 325 316 315
105 119 125 122 119 125 118 116 136 147 140 146 157 165 176 179 178 179 173 164 163 160 158 166 178 191 197 203 223 237 243 242 240 241 243 241 231 189 168 175 171 162 160 163 171 166 163 173 170 140 125 126 128 169 172 48 353 323 286 264 264 267 260 253 256 271 295 314 336 349 348 343 359 16 338 300 313 322 330 332 331 333 332 327 322
86 93 104 110 111 119 121 119 129 135 124 127 139 151 164 169 171 174 171 169 168 169 179 197 211 220 224 224 227 230 229 224 215 197 178 179 173 149 151 180 178 168 164 162 165 166 164 163 159 152 136 113 116 156 176 51 33 17 351 295 257 260 256 250 251 256 267 282 301 332 348 355 21 44 12 323 326 327 325 321 317 315 315 314 307
120 118 120 120 114 117 121 123 132 138 137 137 136 141 155 160 165 177 182 184 186 192 198 203 210 213 210 210 209 202 191 175 160 151 149 159 167 146 124 146 147 139 148 144 123 126 132 129 137 143 140 130 129 128 128 81 27 27 24 19 269 288 284 268 259 255 261 273 281 292 308 323 22 31 326 316 325 328 322 311 306 307 306 305 302
106 113 125 134 136 140 144 148 155 156 151 147 144 152 167 167 165 169 173 177 181 184 180 177 181 177 170 171 172 165 161 158 155 155 155 162 167 149 133 140 137 123 120 112 99 108 108 87 107 133 144 151 151 135 130 147 66 51 80 118 308 343 354 342 320 286 268 267 257 248 252 262 283 302 309 316 320 318 312 304 305 307 306 303 302
69 69 79 97 114 129 137 147 155 154 152 155 156 163 171 167 169 172 169 169 172 171 164 160 157 154 156 165 167 162 161 163 162 161 160 160 158 152 149 148 137 122 117 122 124 133 128 107 115 153 159 149 159 164 161 165 160 156 172 190 248 316 335 338 341 321 269 252 242 246 262 282 293 298 302 308 309 306 303 303 307 312 311 306 304
52 49 46 48 61 84 103 115 127 135 144 151 150 150 154 153 157 167 166 162 164 160 157 161 161 157 162 173 174 168 166 167 164 161 162 160 158 161 169 162 143 127 123 138 133 125 132 124 133 155 147 115 129 133 143 177 206 261 233 200 203 249 289 297 317 301 263 258 264 271 280 289 296 301 303 304 304 303 303 305 309 315 314 308 303
28 33 28 22 26 36 45 60 83 102 120 136 143 150 159 158 157 163 167 168 169 165 163 170 173 169 169 176 179 176 171 168 166 165 168 169 171 181 191 165 149 141 142 157 151 118 139 139 131 135 121 95 94 14 22 197 251 321 304 213 188 197 228 263 316 330 292 281 286 290 296 300 303 305 306 305 304 302 301 304 312 310 302 298 298
16 17 14 12 15 15 12 17 31 36 23 48 114 142 154 158 163 170 175 177 176 174 174 176 177 176 176 177 181 183 176 172 174 173 174 180 187 199 221 171 160 159 154 158 161 150 153 159 158 158 133 59 354 340 340 101 67 37 24 58 113 136 146 72 27 30 336 315 312 311 311 311 311 312 312 311 308 302 294 291 303 308 298 291 293
8 4 4 3 0 358 356 357 358 346 342 355 16 129 170 177 178 185 193 195 190 186 187 184 180 178 175 171 175 183 182 179 181 179 179 185 193 202 236 75 163 166 158 158 164 161 160 170 180 187 187 187 319 333 315 278 20 23 25 50 86 107 109 86 254 276 301 310 315 317 314 309 306 305 307 308 303 294 285 279 284 296 295 287 285
359 354 354 352 351 353 354 353 351 341 325 323 314 286 250 235 245 238 223 228 230 209 194 187 179 173 167 165 172 186 194 193 192 189 184 187 194 197 187 115 141 159 164 169 169 165 167 171 169 170 180 179 186 217 239 268 299 331 352 6 16 17 344 299 282 290 306 316 320 319 315 309 305 298 294 296 295 289 286 283 279 280 286 294 304
344 341 343 344 343 345 343 341 341 336 325 317 311 306 288 249 239 236 227 235 253 253 220 196 184 173 169 172 178 188 198 205 206 201 192 189 194 194 182 165 150 151 151 158 161 163 169 170 164 170 184 182 185 205 218 238 264 300 323 326 321 313 306 302 298 297 305 310 312 315 312 308 307 305 304 311 324 335 315 294 285 289 298 309 321
330 329 330 329 326 326 324 321 317 311 305 301 297 295 291 272 251 240 231 231 242 248 230 213 210 194 177 176 185 194 200 208 213 211 201 194 194 193 187 178 171 174 161 116 154 166 172 170 164 168 182 190 200 206 210 225 253 294 314 313 311 312 310 309 308 300 298 296 297 304 305 304 313 325 333 335 336 335 330 320 315 317 318 318 319
318 318 316 312 309 307 305 303 302 300 297 291 285 279 275 269 260 247 236 231 234 239 229 211 214 227 209 191 195 201 200 204 212 214 207 200 196 195 191 185 184 188 173 129 161 177 178 173 167 166 182 206 215 211 218 240 271 294 309 313 314 318 325 337 331 312 301 297 295 299 309 324 340 345 340 332 327 324 324 322 319 316 317 318 318
317 315 313 310 307 304 299 296 293 292 291 289 286 280 273 265 257 249 246 243 237 239 238 216 206 221 228 218 212 209 201 199 204 207 207 206 203 198 193 188 187 187 173 161 184 188 179 172 166 165 188 209 209 210 219 240 281 300 312 315 313 341 39 2 330 316 311 308 306 310 329 342 341 334 330 329 330 330 328 324 320 317 316 318 318
322 320 315 309 305 301 298 294 290 286 285 284 281 278 273 267 259 252 248 247 243 243 247 240 223 220 228 232 236 233 204 192 198 204 204 206 208 205 201 196 193 192 183 175 183 181 171 169 171 177 193 199 196 203 219 260 303 319 344 355 137 115 55 327 311 314 307 299 300 307 321 325 323 328 332 333 332 333 331 328 326 325 323 323 321
324 321 316 311 307 303 299 296 296 292 285 280 277 273 269 265 261 253 244 241 243 242 243 245 241 230 225 230 248 266 250 212 213 211 205 203 206 207 206 204 202 204 199 186 182 180 172 167 173 186 190 184 184 199 220 283 17 108 105 85 120 144 261 290 303 309 290 280 293 319 337 338 335 334 334 333 333 333 332 331 332 331 328 326 323
321 319 317 313 308 303 298 296 299 299 292 285 280 275 271 268 266 263 259 253 248 245 246 252 250 233 209 201 225 263 261 245 235 219 207 205 205 204 207 209 207 205 204 196 188 183 177 173 175 179 181 178 176 188 199 174 128 127 122 65 265 245 268 281 295 306 292 288 316 345 351 347 343 337 333 331 330 329 330 332 333 331 328 326 322
310 307 307 308 307 304 300 295 292 291 288 285 281 277 275 274 272 270 271 270 263 253 252 256 253 245 241 238 242 252 243 227 224 220 210 206 204 203 211 215 208 203 207 206 196 184 179 180 179 177 181 183 180 193 210 201 168 154 177 226 255 268 281 281 283 309 328 338 350 357 352 341 334 330 328 326 326 327 327 327 328 326 325 322 316
308 303 299 299 299 299 298 297 294 290 286 282 279 276 273 272 271 268 266 268 267 260 253 249 245 243 245 243 239 238 233 223 216 214 215 218 215 215 224 224 210 200 205 207 199 189 184 183 182 183 187 187 188 204 215 203 178 175 200 217 232 260 285 294 303 322 330 333 338 343 341 334 330 327 323 319 321 322 320 318 318 318 316 312 309
305 305 303 301 302 303 300 298 298 298 296 292 288 285 282 277 271 265 261 261 260 257 251 248 243 238 235 230 224 223 229 232 224 217 220 223 219 216 222 219 205 199 202 199 189 186 186 184 186 192 196 198 201 203 198 184 173 183 198 201 204 223 257 282 284 287 304 318 328 334 332 328 325 321 317 318 321 319 314 310 308 305 303 303 302
303 301 301 303 311 319 318 313 310 305 300 296 294 293 295 292 282 269 257 252 250 248 245 244 244 240 234 228 220 215 222 227 220 208 207 208 205 206 210 207 198 198 201 194 181 182 186 187 194 200 201 202 200 185 169 166 174 184 194 214 222 215 225 273 288 289 297 301 298 305 314 318 319 318 319 321 321 317 312 309 307 306 306 304 303
307 303 307 313 320 323 323 321 318 311 304 301 301 301 302 301 298 289 269 245 236 233 229 230 234 229 223 220 211 197 189 185 183 184 189 194 197 200 203 200 195 193 191 182 174 182 192 198 206 206 198 193 184 165 160 170 178 179 194 225 232 211 218 296 328 338 340 328 321 327 330 326 322 320 321 319 313 308 305 304 305 307 307 307 310
306 306 313 320 323 320 314 309 306 305 305 307 309 312 312 308 303 302 299 270 239 229 218 210 204 194 190 190 184 174 168 165 170 177 179 182 187 191 192 190 186 184 184 179 178 191 203 209 213 204 187 180 174 162 160 169 173 177 193 207 215 242 303 4 345 340 340 342 345 343 331 321 317 315 313 309 302 299 299 301 305 309 310 312 317
308 308 310 313 311 304 300 297 297 302 309 312 311 311 312 311 310 312 320 322 294 254 227 211 204 194 186 185 186 184 183 183 183 179 168 166 175 182 182 179 177 180 186 187 189 205 215 212 210 199 179 169 163 157 160 168 171 177 191 193 198 237 46 61 358 336 337 336 330 325 319 316 317 316 312 309 308 311 315 320 326 329 328 325 320
309 308 307 306 304 300 302 306 308 311 316 315 308 300 298 305 315 319 320 324 335 355 358 288 239 212 190 188 194 196 194 192 192 192 193 196 194 187 184 184 183 187 194 194 193 208 218 207 196 184 168 159 155 156 164 168 168 179 189 178 160 149 122 95 341 340 342 328 323 335 342 337 330 328 326 324 327 329 330 334 338 338 334 328 320
309 308 305 305 308 311 313 311 307 308 313 315 309 302 302 308 317 320 320 323 327 330 327 295 235 207 195 199 203 198 192 192 198 202 204 207 207 202 198 195 191 194 201 200 196 204 213 198 179 166 159 160 162 165 167 168 172 181 181 166 162 179 194 278 298 318 346 341 333 341 346 346 345 344 339 335 334 335 339 341 336 329 324 319 315
306 304 303 303 303 304 304 303 301 304 313 321 324 329 336 338 335 331 329 325 321 319 305 223 216 207 194 192 195 191 184 182 186 189 188 188 194 199 202 201 198 198 201 199 198 204 204 183 165 161 166 171 175 173 167 164 166 163 153 160 205 210 223 285 293 301 354 350 342 344 344 343 346 347 345 344 347 349 346 335 321 313 313 314 313
307 304 304 303 301 299 300 302 302 304 317 337 346 349 350 348 343 340 339 334 332 337 338 273 222 195 187 190 190 182 172 169 174 183 186 186 191 197 200 202 202 199 197 198 204 206 193 170 159 163 172 175 173 166 158 152 148 151 160 181 207 179 115 5 19 62 12 345 346 349 341 334 336 343 349 353 349 339 327 318 315 316 317 316 315
309 314 317 313 307 305 305 306 310 324 349 1 357 351 348 345 340 338 338 339 343 345 335 329 46 129 160 182 175 154 155 162 170 184 193 198 200 198 197 201 205 200 190 187 188 178 162 157 159 162 165 164 151 134 134 139 147 165 171 162 117 95 62 39 45 30 348 352 351 336 326 331 341 347 350 347 339 330 325 323 325 326 322 318 318
328 333 333 326 313 308 310 324 358 21 21 11 360 352 347 342 337 333 331 335 342 345 339 349 45 99 139 160 159 155 157 161 166 177 192 205 203 198 197 201 202 186 166 152 144 138 142 157 165 162 155 150 133 117 123 142 157 150 131 114 101 89 65 50 40 9 356 360 342 320 323 343 354 350 347 343 339 336 335 332 328 326 324 323 324
333 331 331 333 331 333 352 25 37 30 20 10 3 357 353 349 347 347 347 346 345 344 349 15 52 78 122 154 164 168 161 152 163 169 175 201 205 199 192 181 169 157 141 134 143 152 157 167 170 161 145 136 129 129 142 147 129 109 108 104 99 96 74 47 25 4 352 337 318 321 340 355 353 346 345 346 347 347 340 330 327 328 326 325 327
337 335 336 355 17 26 34 41 40 30 24 19 10 3 3 5 4 5 9 14 14 11 14 30 43 46 64 120 153 157 143 141 147 146 146 157 164 157 145 137 135 133 129 139 161 171 167 161 156 146 137 131 123 118 121 118 104 99 99 91 91 99 81 37 15 4 349 334 331 345 354 351 346 346 351 355 358 352 336 327 329 330 327 326 331
354 357 2 20 38 46 43 39 38 39 36 28 17 14 19 20 17 18 23 28 30 33 34 37 50 68 82 101 126 135 133 133 133 131 130 128 123 119 119 120 121 123 128 142 157 162 156 145 135 129 128 129 122 116 118 118 115 115 111 103 101 99 70 37 23 7 350 345 353 360 351 343 342 347 354 358 351 336 329 330 333 330 327 331 339
358 9 23 33 38 44 44 40 41 47 48 43 34 32 36 37 35 34 35 37 40 48 55 64 79 92 99 105 112 114 113 114 117 120 119 116 112 109 107 108 113 118 116 114 121 126 125 121 117 115 113 111 106 109 120 117 114 122 129 124 105 70 40 26 12 355 348 355 2 354 343 344 351 355 350 342 334 329 330 332 332 330 334 341 341
13 25 46 54 48 48 52 50 48 51 52 50 49 47 45 45 49 52 55 58 62 68 77 83 88 92 96 99 101 101 100 101 103 105 107 108 107 103 97 97 103 103 95 97 108 114 114 114 118 121 119 113 104 94 92 90 91 109 137 113 65 37 18 2 349 343 348 356 356 349 346 356 7 13 359 343 338 335 333 333 334 339 346 344 336
32 29 39 53 61 67 68 66 67 68 63 58 63 64 56 53 60 64 66 70 76 82 88 90 90 89 92 93 94 93 93 94 94 94 97 102 104 99 92 92 97 94 89 94 103 108 112 117 122 125 129 128 122 115 110 110 118 150 144 23 19 6 351 342 340 341 345 350 353 352 352 355 3 11 8 355 346 339 335 334 335 338 339 335 331
24 22 31 48 61 71 81 95 95 90 81 76 82 77 68 68 75 76 73 77 84 87 89 91 91 89 89 89 90 91 93 93 92 92 92 95 99 99 99 103 105 99 93 96 103 107 112 115 116 123 131 129 121 122 131 143 165 221 354 4 359 349 342 339 340 342 343 346 351 354 353 352 359 10 8 351 342 338 336 335 334 333 330 328 330
21 20 34 50 49 45 53 76 109 113 105 97 100 98 85 78 80 82 84 89 93 94 93 94 93 91 89 89 90 93 96 96 95 93 92 94 98 102 107 111 111 105 99 98 96 98 107 114 121 131 127 112 103 115 149 163 2 8 11 4 357 354 352 350 349 347 345 343 344 350 353 356 5 13 4 345 338 338 337 334 333 334 333 331 338
31 28 43 54 49 48 63 63 55 73 95 91 89 95 95 90 90 91 94 98 101 100 97 95 94 92 92 92 93 94 97 97 97 98 99 98 97 97 102 107 106 101 98 93 84 80 90 101 112 122 121 118 126 156 191 20 22 19 13 5 2 360 357 355 354 350 345 341 340 343 349 359 8 7 356 342 336 338 338 335 334 336 336 339 353
52 47 51 51 41 47 78 72 42 40 58 71 74 81 84 84 90 99 103 105 108 106 100 97 94 92 92 94 96 96 96 97 98 102 107 107 104 103 107 111 110 106 105 104 100 97 92 89 91 107 127 138 146 141 46 42 38 30 24 20 16 11 5 2 358 351 345 342 338 336 347 6 10 358 343 336 337 341 340 337 336 336 339 348 2